Weather Roundup
Issued by NWS

Home | Current Version | Previous Version | Text Only | Print | Product List | Glossary On
Versions: 1 2 3 4 5 6 7 8 9 10 11 12 13 14 15 16 17 18 19 20 21 22 23 24 25 26 27 28 29 30 31 32 33 34 35 36 37 38 39 40 41 42 43 44 45 46 47 48 49 50
003
NZUS93 KARX 241059
HRRWXR

CURRENT HOURLY OBSERVATIONS ACROSS
MUCH OF THE UPPER MISSISSIPPI VALLEY
NATIONAL WEATHER SERVICE LA CROSSE WI
600 AM CDT TUE MAY 24 2016


...SOUTHEAST MINNESOTA...


CITY           SKY/WX    TMP DP  RH WIND       PRES   REMARKS
ROCHESTER      MOCLDY    64  61  90 S9        29.86R
ROCHESTER/MAYO PTSUNNY   65  63  95 SE7       29.86S
WINONA         CLOUDY    63  61  94 SE3       29.86R
AUSTIN         CLOUDY    63  59  88 SW5       29.86R
ALBERT LEA     CLOUDY    64  61  88 MISG      29.85S
DODGE CENTER   CLOUDY    64  61  88 SW9       29.86R
PRESTON        CLOUDY    62  56  82 S8        29.88R
OWATONNA       CLOUDY    64  59  82 SW8       29.85R
FARIBAULT      NOT AVBL
$$

...ELSEWHERE IN MINNESOTA...


CITY           SKY/WX    TMP DP  RH WIND       PRES   REMARKS
MINNEAPOLIS    MOCLDY    67  59  75 SW6       29.82R
INTNL FALLS    CLOUDY    55  54  96 CALM      29.79R
DULUTH         FOG       59  58  96 NE6       29.82S VSB 1/2
RED WING       CLOUDY    64  63  94 S5        29.84R
REDWOOD FALLS  CLOUDY    61  59  93 S6        29.81S FOG
MANKATO        CLOUDY    63  57  82 SW8       29.84S
WORTHINGTON    CLOUDY    61  59  93 S13       29.84S FOG
FAIRMONT       CLOUDY    63  57  82 SW9       29.84S
$$

...SOUTHWEST WISCONSIN...


CITY           SKY/WX    TMP DP  RH WIND       PRES   REMARKS
LA CROSSE      CLOUDY    66  56  70 S8        29.86R
PRAIRIE DU CHI CLOUDY    68  52  56 S3        29.89R
BOSCOBEL       CLOUDY    60  55  83 CALM      29.90R
LONE ROCK      NOT AVBL
PLATTEVILLE    PTCLDY    64  51  62 S7        29.92S
FORT MC COY    CLOUDY    59  56  88 S3        29.88R
MAUSTON-NEW LI CLOUDY    64  51  63 S6        29.87F
VIROQUA        PTSUNNY   60  50  69 SE3       29.90R
WIS DELLS      MOCLDY    63  49  59 S8        29.90S
$$

...ELSEWHERE IN WISCONSIN...


CITY           SKY/WX    TMP DP  RH WIND       PRES   REMARKS
MILWAUKEE      MOCLDY    61  46  57 SW8       29.95R
MADISON        MOCLDY    62  49  62 S7        29.93R
GREEN BAY      PTCLDY    56  46  69 S5        29.90R
EAU CLAIRE     NOT AVBL
BLACK RVR FLS  CLOUDY    61  58  89 CALM      29.86R
MEDFORD        CLOUDY    60  60 100 SE3       29.88S
WAUSAU         CLOUDY    61  51  70 SE3       29.88R
WIS RAPIDS     TSTM      60  51  72 CALM      29.91R
MARSHFIELD     CLOUDY    61  55  81 SE5       29.88R
RICE LAKE      CLOUDY    62  59  90 SE5       29.85R
$$

...NORTHEAST IOWA...


CITY           SKY/WX    TMP DP  RH WIND       PRES   REMARKS
WATERLOO       CLOUDY    63  61  93 S7        29.87S
DUBUQUE        CLOUDY    61  51  70 S8        29.93R
DECORAH        CLOUDY    64  55  72 VRB7      29.88R
MASON CITY     CLOUDY    63  60  90 W8        29.86R
CHARLES CITY   CLOUDY    64  63  94 S8        29.88R
OELWEIN        CLOUDY    64  61  88 SW7       29.90R
$$

...ELSEWHERE IN IOWA...


CITY           SKY/WX    TMP DP  RH WIND       PRES   REMARKS
DES MOINES     CLOUDY    64  61  90 S5        29.88S
IOWA CITY      LGT RAIN  64  58  80 CALM      29.94R
FORT DODGE     CLOUDY    57  54  88 S5        29.87R
MARSHALLTOWN   CLOUDY    63  62  97 S5        29.87F
CEDAR RAPIDS   CLOUDY    61  60  97 S5        29.92R
$$

...NORTHERN ILLINOIS...


CITY           SKY/WX    TMP DP  RH WIND       PRES   REMARKS
CHICAGO-OHARE  CLOUDY    61  46  57 CALM      29.97R
CHICAGO-MIDWAY CLOUDY    65  44  46 S7        29.98R
MOLINE         MOCLDY    65  52  62 CALM      29.94R
ROCKFORD       PTCLDY    58  49  72 S3        29.98R
PEORIA         CLEAR     59  51  75 S3        29.97S
$$

NOTE: "FAIR" INDICATES FEW OR NO CLOUDS BELOW 12,000 FEET WITH NO
SIGNIFICANT WEATHER AND/OR OBSTRUCTIONS TO VISIBILITY. WIND
SPEEDS ARE IN MILES-PER-HOUR.




USA.gov is the U.S. government's official web portal to all federal, state and local government web resources and services.